Weather History for Rolla, MO

Change the Weather History Date:

Saturday, March 2, 2013

  Actual Average Record
Temperature  
Mean Temperature 24 °F 40 °F  
Max Temperature 31 °F 51 °F 77 °F (1992)
Min Temperature 16 °F 30 °F 0 °F (1992)
Degree Days  
Heating Degree Days 41 25  
Month to date heating degree days 79 50  
Since 1 July heating degree days 3665 3840  
Cooling Degree Days 0 0  
Month to date cooling degree days 0 0  
Year to date cooling degree days 0 0  
Moisture  
Dew Point 17 °F    
Average Humidity 73    
Maximum Humidity 92    
Minimum Humidity 53    
Precipitation  
Precipitation T in 0.08 in 1.34 in (1948)
Month to date precipitation 0.02 0.16  
Year to date precipitation 4.73 4.26  
Sea Level Pressure  
Sea Level Pressure 30.24 in    
Wind  
Wind Speed 8 mph (NW)    
Max Wind Speed 15 mph    
Max Gust Speed 20 mph    
Visibility 8 miles    
Events Snow    
T = Trace of Precipitation, MM = Missing Value Source: NWS Daily Summary

Daily Weather History Graph

Daily Weather History Graph

Search for Another Location

Airport:

Trip Planner

Search our weather history database for the weather conditions in past years. The results will help you decide how hot, cold, wet, or windy it might be!

Date:

Astronomy

Mar. 02, 2013 Rise Set
Actual Time 6:37 AM CST 6:01 PM CST
Civil Twilight 6:10 AM CST 6:28 PM CST
Nautical Twilight 5:40 AM CST 6:58 PM CST
Astronomical Twilight 5:09 AM CST 7:29 PM CST
Moon 11:35 PM CST (3/2) 9:10 AM CST (3/2)
Length of Visible Light 12h 17m
Length of Day
11h 24m
Waning Gibbous, 74% of the Moon is Illuminated
Mar 2
Waning Gibbous
Mar 4
Last Quarter
Mar 11
New
Mar 19
First Quarter
Mar 27
Full

Hourly Weather History & Observations

Time (CST) Temp. Windchill Dew Point Humidity Pressure Visibility Wind Dir Wind Speed Gust Speed Precip Events Conditions
12:53 AM 24.1 °F 15.2 °F 19.9 °F 84% 30.23 in 9.0 mi NNW 8.1 mph - 0.00 in   Overcast
1:49 AM 23.0 °F 13.1 °F 19.4 °F 86% 30.19 in 10.0 mi NNW 9.2 mph - N/A   Overcast
1:53 AM 23.0 °F 12.4 °F 19.0 °F 85% 30.23 in 10.0 mi NNW 10.4 mph - N/A   Overcast
2:27 AM 23.0 °F 12.4 °F 19.4 °F 86% 30.19 in 10.0 mi NNW 10.4 mph - N/A   Overcast
2:53 AM 23.0 °F 13.1 °F 18.0 °F 81% 30.23 in 10.0 mi NNW 9.2 mph - N/A   Overcast
3:53 AM 21.9 °F 11.7 °F 18.0 °F 85% 30.22 in 10.0 mi NW 9.2 mph - 0.00 in   Overcast
4:35 AM 21.2 °F 10.1 °F 17.6 °F 86% 30.19 in 10.0 mi NNW 10.4 mph - N/A   Overcast
4:53 AM 21.9 °F 11.7 °F 18.0 °F 85% 30.23 in 4.0 mi NW 9.2 mph - 0.00 in Snow Light Snow
5:34 AM 21.2 °F 9.5 °F 17.6 °F 86% 30.19 in 8.0 mi NW 11.5 mph - 0.00 in   Overcast
5:53 AM 21.0 °F 9.9 °F 18.0 °F 88% 30.25 in 6.0 mi NNW 10.4 mph - 0.00 in Snow Light Snow
6:53 AM 21.0 °F 10.6 °F 18.0 °F 88% 30.27 in 3.0 mi NNW 9.2 mph - 0.00 in Snow Light Snow
7:08 AM 21.2 °F 13.6 °F 19.4 °F 93% 30.23 in 2.5 mi NW 5.8 mph - 0.00 in Snow Light Snow
7:18 AM 21.2 °F 11.7 °F 19.4 °F 93% 30.23 in 4.0 mi NW 8.1 mph - 0.00 in Snow Light Snow
7:33 AM 21.2 °F 11.7 °F 19.4 °F 93% 30.23 in 1.8 mi NW 8.1 mph - 0.00 in Snow Light Snow
7:42 AM 21.2 °F 11.7 °F 19.4 °F 93% 30.23 in 2.5 mi NNW 8.1 mph - 0.00 in Snow Light Snow
7:47 AM 21.2 °F 10.9 °F 19.4 °F 93% 30.23 in 3.0 mi NW 9.2 mph - 0.00 in Snow Light Snow
7:53 AM 21.9 °F 12.5 °F 19.9 °F 92% 30.28 in 2.5 mi NNW 8.1 mph - 0.00 in Snow Light Snow
8:07 AM 21.2 °F 9.5 °F 19.4 °F 93% 30.24 in 1.5 mi NW 11.5 mph - 0.00 in Snow Light Snow
8:15 AM 23.0 °F 12.4 °F 19.4 °F 86% 30.24 in 2.0 mi NW 10.4 mph - 0.00 in Snow Light Snow
8:28 AM 23.0 °F 11.7 °F 17.6 °F 80% 30.24 in 4.0 mi NW 11.5 mph - 0.00 in Snow Light Snow
8:53 AM 23.0 °F 11.7 °F 19.0 °F 85% 30.29 in 8.0 mi NNW 11.5 mph - 0.00 in   Overcast
9:34 AM 24.8 °F 13.4 °F 17.6 °F 74% 30.25 in 10.0 mi North 12.7 mph - N/A   Overcast
9:53 AM 25.0 °F 14.2 °F 18.0 °F 75% 30.29 in 10.0 mi NNW 11.5 mph - N/A   Overcast
10:00 AM 24.8 °F 12.9 °F 17.6 °F 74% 30.25 in 10.0 mi NNW 13.8 mph - N/A   Overcast
10:28 AM 24.8 °F 14.6 °F 17.6 °F 74% 30.25 in 10.0 mi NW 10.4 mph - N/A   Overcast
10:53 AM 25.0 °F 14.2 °F 17.1 °F 72% 30.30 in 8.0 mi NNW 11.5 mph - 0.00 in Snow Light Snow
11:53 AM 26.1 °F 16.2 °F 17.1 °F 69% 30.30 in 10.0 mi NNW 10.4 mph - 0.00 in   Overcast
12:53 PM 27.0 °F 17.3 °F 17.1 °F 66% 30.27 in 10.0 mi NNW 10.4 mph - N/A   Overcast
1:53 PM 28.9 °F 21.1 °F 16.0 °F 58% 30.25 in 10.0 mi NW 8.1 mph - N/A   Mostly Cloudy
2:53 PM 30.0 °F 22.4 °F 16.0 °F 56% 30.24 in 10.0 mi NW 8.1 mph - N/A   Scattered Clouds
3:53 PM 30.0 °F 21.7 °F 16.0 °F 56% 30.24 in 10.0 mi NNW 9.2 mph - N/A   Scattered Clouds
4:53 PM 30.0 °F 21.7 °F 16.0 °F 56% 30.25 in 10.0 mi NNW 9.2 mph - N/A   Scattered Clouds
5:53 PM 28.0 °F 20.8 °F 15.1 °F 58% 30.25 in 10.0 mi WNW 6.9 mph - N/A   Clear
6:53 PM 25.0 °F 17.1 °F 15.1 °F 66% 30.26 in 10.0 mi WNW 6.9 mph - N/A   Clear
7:53 PM 23.0 °F 14.7 °F 15.1 °F 72% 30.26 in 10.0 mi WNW 6.9 mph - N/A   Clear
8:53 PM 21.9 °F 14.5 °F 15.1 °F 75% 30.26 in 10.0 mi NW 5.8 mph - N/A   Clear
9:53 PM 19.9 °F 14.9 °F 12.9 °F 74% 30.25 in 10.0 mi NW 3.5 mph - N/A   Clear
10:53 PM 18.0 °F - 12.0 °F 78% 30.24 in 10.0 mi Calm Calm - N/A   Clear
11:53 PM 17.1 °F - 12.9 °F 84% 30.23 in 10.0 mi Calm Calm - N/A   Clear